Location: *
(33.8649°S, 62.1526°E)
Time: 16:47:52
(UTC+00:00)

ARGOS - Pass Details

Date: 17 January 2021
Orbit: 821 x 834 km, 98.4° (Epoch: 04 March)

Event Time Altitude Azimuth Distance (km) Brightness Sun altitude
Rises 16:20:41 0° 176° (S) 3,397 6.8 -14.3°
Reaches altitude 10° 16:23:09 10° 182° (S) 2,454 6.2 -14.7°
Maximum altitude 16:28:16 43° 252° (WSW) 1,149 4.4 -15.5°
Drops below altitude 10° 16:33:19 10° 322° (NW) 2,420 5.6 -16.4°
Sets 16:35:45 0° 328° (NNW) 3,344 6.2 -16.7°
